Location: Fauquembergues
(50.6005°N, 2.0987°E)
Time: 08:45:25
(UTC+00:00)

Cosmos 1544 - Pass Details

Date: 14 July 2020
Orbit: 473 x 490 km, 82.5° (Epoch: 14 August)

Event Time Altitude Azimuth Distance (km) Brightness Sun altitude
Exits shadow 03:00:06 - 176° (S) 2,434 6.2 -7.3°
Reaches altitude 10° 03:02:01 10° 171° (S) 1,639 5.4 -7.1°
Maximum altitude 03:05:29 50° 96° (E) 614 3.9 -6.8°
Drops below altitude 10° 03:09:00 10° 20° (NNE) 1,654 7.0 -6.4°
Sets 03:11:08 0° 15° (NNE) 2,539 7.9 -6.1°
